GEFSGL_prec_meanprecacc_282.txt.gz
Total_Precipitation_Accumulation
1.76 2.01 2.05 1.97 2.00 2.07 1.93 1.89 2.00 2.01 1.99 2.05 2.06 2.04 2.05 2.20 2.40 2.62 2.59 2.74 2.87 2.91 2.88 2.80 2.71 2.74 2.89 2.83 2.96 3.12 3.35 3.58 3.31 2.95 2.79 2.74 2.73 2.54 2.35 2.06 1.82 1.71 1.59
2.03 2.35 2.42 2.19 2.01 1.87 1.72 1.70 1.84 2.02 2.06 2.04 2.03 2.04 1.99 2.09 2.33 2.51 2.61 2.85 2.99 2.89 2.79 2.76 2.66 2.79 2.88 2.85 2.93 2.92 3.00 3.29 3.18 2.97 2.90 2.94 2.82 2.60 2.47 2.28 1.92 1.73 1.75
1.88 2.24 2.24 1.99 1.76 1.71 1.70 1.71 1.81 1.97 1.99 1.97 2.02 2.10 2.20 2.31 2.47 2.58 2.69 2.87 2.85 2.74 2.74 2.66 2.56 2.67 2.62 2.68 2.69 2.69 2.69 2.79 2.97 2.89 2.79 2.87 2.79 2.60 2.50 2.33 2.21 2.29 2.07
1.48 1.81 1.82 1.66 1.58 1.58 1.61 1.63 1.62 1.68 1.73 1.80 2.02 2.25 2.40 2.53 2.62 2.65 2.66 2.63 2.63 2.53 2.43 2.36 2.39 2.53 2.63 2.62 2.51 2.49 2.56 2.69 2.78 2.82 2.79 2.87 2.89 2.88 2.76 2.60 2.58 2.50 2.33
1.45 1.67 1.64 1.57 1.58 1.51 1.47 1.56 1.63 1.69 1.72 1.95 2.12 2.21 2.26 2.31 2.37 2.51 2.49 2.42 2.41 2.32 2.22 2.06 2.10 2.42 2.58 2.53 2.32 2.41 2.49 2.56 2.63 2.75 2.81 2.91 2.97 3.17 2.96 2.66 2.53 2.58 2.42
1.39 1.62 1.58 1.51 1.48 1.39 1.42 1.52 1.66 1.75 1.93 2.11 2.10 2.08 2.04 1.75 1.86 1.97 2.02 2.07 2.11 2.10 1.98 1.93 1.93 2.00 2.04 2.07 2.05 2.05 2.11 2.20 2.42 2.69 2.77 2.78 2.74 2.84 2.93 2.82 2.72 2.66 2.60
1.44 1.63 1.64 1.55 1.53 1.47 1.42 1.59 1.77 1.95 2.12 2.23 2.20 2.14 1.99 1.88 1.77 1.66 1.67 1.74 1.90 1.92 1.95 2.02 1.75 1.58 1.71 1.73 1.86 1.84 1.75 1.83 1.97 2.24 2.43 2.44 2.53 2.55 2.81 2.84 2.91 2.95 2.89
1.41 1.62 1.69 1.63 1.66 1.74 1.75 1.82 2.01 2.22 2.36 2.38 2.35 2.26 2.15 2.05 1.95 1.76 1.75 1.68 1.79 1.83 1.83 1.86 1.81 1.69 1.64 1.76 1.84 1.77 1.61 1.56 1.55 1.54 1.76 2.04 2.28 2.51 2.57 2.64 2.77 2.86 2.88
1.37 1.57 1.69 1.74 1.82 1.85 1.92 2.15 2.33 2.49 2.51 2.49 2.55 2.46 2.35 2.32 2.15 1.80 1.63 1.57 1.74 1.79 1.80 1.74 1.69 1.62 1.67 1.55 1.50 1.52 1.52 1.51 1.36 1.35 1.42 1.64 1.83 1.90 2.11 2.38 2.61 2.61 2.57
1.70 1.78 1.98 2.18 2.35 2.43 2.50 2.54 2.60 2.71 2.66 2.66 2.60 2.59 2.47 2.41 2.31 1.78 1.50 1.44 1.64 1.70 1.77 1.73 1.60 1.46 1.44 1.31 1.28 1.44 1.43 1.44 1.47 1.39 1.28 1.31 1.39 1.54 1.64 1.72 2.04 2.27 2.19
2.09 2.13 2.32 2.65 2.85 2.85 2.90 2.79 2.68 2.69 2.72 2.73 2.63 2.55 2.47 2.38 2.27 1.82 1.60 1.55 1.70 1.80 1.77 1.71 1.65 1.52 1.31 1.26 1.20 1.26 1.34 1.33 1.39 1.43 1.38 1.34 1.43 1.55 1.50 1.48 1.64 1.87 1.97
2.36 2.52 2.77 3.03 2.90 2.82 2.98 2.87 2.84 2.91 2.89 2.78 2.68 2.59 2.59 2.50 2.26 1.91 1.67 1.67 1.76 1.85 1.91 1.87 1.78 1.56 1.31 1.22 1.14 1.14 1.13 1.04 1.07 1.25 1.30 1.27 1.31 1.43 1.49 1.47 1.54 1.61 1.69
2.57 2.72 2.84 2.93 3.06 3.17 3.23 3.10 3.01 2.97 2.90 2.70 2.59 2.42 2.33 2.39 2.38 1.96 1.66 1.68 1.73 1.73 1.90 1.96 1.70 1.45 1.28 1.13 1.13 1.13 1.02 0.92 1.03 1.12 1.14 1.14 1.16 1.28 1.50 1.65 1.71 1.73 1.68
2.43 2.45 2.55 2.70 2.83 2.95 3.19 3.22 3.10 2.93 2.82 2.72 2.63 2.46 2.34 2.33 2.30 1.96 1.64 1.60 1.67 1.64 1.70 1.78 1.64 1.46 1.30 1.17 1.12 1.09 1.02 1.06 1.15 1.16 1.18 1.24 1.27 1.35 1.45 1.53 1.63 1.69 1.67
2.42 2.36 2.32 2.34 2.49 2.63 2.75 2.83 2.77 2.72 2.54 2.41 2.26 2.17 2.12 2.13 2.13 1.90 1.68 1.61 1.71 1.77 1.73 1.73 1.70 1.55 1.42 1.32 1.29 1.32 1.36 1.35 1.28 1.29 1.33 1.35 1.34 1.34 1.39 1.44 1.52 1.58 1.54
2.30 2.18 2.17 2.17 2.24 2.30 2.33 2.28 2.13 2.02 1.85 1.67 1.58 1.52 1.51 1.56 1.69 1.55 1.42 1.47 1.63 1.73 1.62 1.58 1.67 1.65 1.57 1.49 1.45 1.46 1.46 1.41 1.36 1.38 1.37 1.36 1.34 1.32 1.35 1.38 1.40 1.41 1.39
2.18 2.03 1.92 1.87 1.91 1.92 1.97 2.11 2.17 1.93 1.72 1.49 1.34 1.21 1.18 1.26 1.36 1.37 1.34 1.36 1.48 1.52 1.41 1.44 1.54 1.59 1.55 1.51 1.46 1.43 1.39 1.43 1.46 1.40 1.35 1.36 1.35 1.33 1.35 1.38 1.39 1.42 1.39
2.09 2.00 1.87 1.83 1.85 1.89 1.93 2.01 2.13 2.12 1.84 1.47 1.34 1.22 1.05 1.00 1.03 1.10 1.14 1.19 1.25 1.27 1.24 1.30 1.36 1.43 1.46 1.48 1.49 1.49 1.42 1.43 1.45 1.45 1.41 1.40 1.41 1.35 1.35 1.35 1.32 1.34 1.42
1.96 1.90 1.83 1.84 1.83 1.83 1.94 1.98 1.97 2.01 1.89 1.66 1.42 1.21 1.05 0.92 0.91 0.98 0.98 0.98 1.10 1.14 1.13 1.17 1.21 1.24 1.29 1.35 1.37 1.42 1.41 1.39 1.39 1.42 1.38 1.37 1.40 1.41 1.40 1.39 1.40 1.43 1.44
1.88 1.77 1.66 1.65 1.63 1.57 1.60 1.69 1.70 1.77 1.74 1.66 1.51 1.23 1.00 0.88 0.90 0.96 0.95 1.04 1.13 1.14 1.12 1.15 1.12 1.12 1.16 1.23 1.30 1.37 1.39 1.40 1.43 1.42 1.40 1.40 1.39 1.41 1.40 1.42 1.45 1.49 1.50
1.83 1.60 1.36 1.25 1.31 1.40 1.48 1.56 1.58 1.60 1.63 1.59 1.40 1.13 0.93 0.82 0.91 1.03 1.10 1.11 1.10 1.11 1.07 1.05 1.03 1.05 1.09 1.16 1.24 1.29 1.35 1.42 1.41 1.41 1.44 1.42 1.37 1.38 1.38 1.42 1.42 1.44 1.50
1.70 1.55 1.36 1.24 1.28 1.33 1.41 1.53 1.56 1.52 1.50 1.49 1.38 1.16 1.01 0.88 0.94 1.03 1.07 1.05 1.02 1.05 1.03 1.00 0.97 1.01 1.06 1.14 1.23 1.28 1.31 1.32 1.33 1.37 1.39 1.40 1.41 1.41 1.41 1.46 1.46 1.46 1.49
1.67 1.60 1.48 1.38 1.42 1.42 1.43 1.49 1.46 1.40 1.38 1.36 1.31 1.21 1.08 1.03 1.04 1.08 1.08 1.07 1.07 1.05 1.05 1.04 1.01 0.99 1.04 1.12 1.17 1.21 1.25 1.24 1.24 1.26 1.34 1.40 1.43 1.45 1.50 1.52 1.48 1.44 1.43
1.50 1.51 1.45 1.37 1.37 1.41 1.37 1.38 1.33 1.29 1.25 1.21 1.17 1.14 1.09 1.09 1.10 1.07 1.07 1.07 1.02 0.92 0.86 0.87 0.90 0.94 0.97 0.99 1.00 1.02 1.05 1.08 1.08 1.12 1.18 1.27 1.32 1.41 1.50 1.54 1.51 1.47 1.53
1.40 1.45 1.44 1.43 1.41 1.39 1.41 1.43 1.36 1.29 1.25 1.19 1.16 1.13 1.10 1.08 1.06 1.09 1.09 1.00 0.91 0.86 0.82 0.83 0.88 0.88 0.85 0.85 0.86 0.88 0.98 0.97 0.93 0.98 1.10 1.25 1.32 1.42 1.55 1.59 1.59 1.61 1.71
1.27 1.31 1.31 1.32 1.34 1.34 1.31 1.33 1.32 1.23 1.15 1.08 1.05 1.03 0.97 0.92 0.90 0.91 0.90 0.87 0.87 0.87 0.86 0.87 0.89 0.89 0.87 0.83 0.84 0.91 0.92 0.88 0.89 0.98 0.98 1.05 1.18 1.30 1.40 1.46 1.44 1.53 1.65

GEFSGL_prec_meanprecacc_288.txt.gz
Total_Precipitation_Accumulation
1.81 2.08 2.13 2.04 2.05 2.10 1.96 1.93 2.03 2.04 2.01 2.07 2.08 2.07 2.08 2.23 2.43 2.64 2.60 2.76 2.88 2.93 2.89 2.81 2.72 2.75 2.91 2.85 2.99 3.15 3.38 3.61 3.32 2.96 2.80 2.75 2.75 2.57 2.39 2.09 1.85 1.73 1.61
2.06 2.40 2.48 2.24 2.04 1.90 1.75 1.74 1.88 2.04 2.09 2.08 2.07 2.07 2.01 2.12 2.36 2.52 2.63 2.87 3.00 2.90 2.80 2.77 2.67 2.80 2.90 2.88 2.96 2.95 3.02 3.31 3.20 2.98 2.92 2.94 2.84 2.63 2.50 2.31 1.94 1.76 1.77
1.92 2.27 2.28 2.02 1.79 1.74 1.73 1.75 1.85 2.02 2.05 2.03 2.06 2.13 2.22 2.33 2.48 2.59 2.70 2.89 2.87 2.75 2.75 2.67 2.57 2.67 2.63 2.69 2.72 2.72 2.71 2.80 2.99 2.90 2.81 2.88 2.80 2.62 2.54 2.36 2.24 2.32 2.09
1.52 1.87 1.84 1.67 1.61 1.62 1.64 1.67 1.68 1.76 1.80 1.85 2.06 2.27 2.41 2.54 2.63 2.66 2.67 2.66 2.65 2.55 2.44 2.37 2.39 2.53 2.64 2.63 2.54 2.52 2.58 2.71 2.80 2.83 2.81 2.89 2.91 2.91 2.79 2.62 2.61 2.54 2.35
1.48 1.72 1.67 1.59 1.61 1.54 1.51 1.62 1.69 1.74 1.76 1.98 2.14 2.23 2.28 2.33 2.39 2.52 2.51 2.43 2.42 2.32 2.23 2.07 2.11 2.43 2.59 2.55 2.35 2.45 2.52 2.58 2.65 2.77 2.83 2.93 3.01 3.20 3.00 2.69 2.56 2.60 2.45
1.42 1.65 1.62 1.54 1.51 1.41 1.47 1.58 1.70 1.80 1.97 2.14 2.12 2.10 2.06 1.77 1.88 1.99 2.03 2.08 2.12 2.10 1.99 1.93 1.93 2.01 2.05 2.09 2.08 2.09 2.16 2.23 2.44 2.73 2.82 2.82 2.79 2.88 2.96 2.85 2.74 2.68 2.62
1.46 1.67 1.68 1.60 1.55 1.49 1.45 1.63 1.79 1.98 2.17 2.26 2.23 2.17 2.01 1.91 1.80 1.69 1.68 1.75 1.91 1.93 1.95 2.02 1.75 1.58 1.71 1.74 1.87 1.86 1.79 1.88 2.03 2.29 2.48 2.48 2.58 2.58 2.84 2.86 2.92 2.96 2.90
1.43 1.66 1.73 1.67 1.69 1.77 1.78 1.84 2.02 2.24 2.39 2.40 2.38 2.28 2.18 2.08 1.98 1.80 1.77 1.69 1.80 1.83 1.84 1.86 1.82 1.69 1.65 1.76 1.84 1.77 1.62 1.59 1.59 1.57 1.79 2.07 2.31 2.55 2.61 2.67 2.79 2.88 2.90
1.39 1.61 1.74 1.79 1.87 1.89 1.95 2.17 2.35 2.50 2.53 2.51 2.56 2.48 2.37 2.35 2.18 1.84 1.66 1.58 1.75 1.79 1.80 1.75 1.71 1.63 1.68 1.56 1.51 1.53 1.52 1.52 1.38 1.37 1.45 1.67 1.86 1.93 2.15 2.41 2.63 2.63 2.58
1.72 1.81 2.03 2.24 2.41 2.47 2.53 2.58 2.63 2.73 2.68 2.68 2.61 2.60 2.49 2.43 2.34 1.82 1.54 1.47 1.65 1.72 1.79 1.74 1.62 1.47 1.46 1.32 1.30 1.45 1.45 1.45 1.48 1.40 1.30 1.34 1.43 1.58 1.68 1.76 2.07 2.30 2.22
2.12 2.18 2.38 2.71 2.90 2.89 2.94 2.83 2.72 2.72 2.75 2.75 2.65 2.56 2.48 2.39 2.29 1.85 1.65 1.59 1.74 1.83 1.79 1.73 1.66 1.53 1.33 1.28 1.22 1.27 1.35 1.34 1.40 1.44 1.40 1.37 1.46 1.59 1.55 1.53 1.69 1.91 1.99
2.39 2.58 2.83 3.08 2.96 2.87 3.02 2.92 2.90 2.96 2.95 2.84 2.74 2.63 2.62 2.53 2.28 1.94 1.70 1.70 1.79 1.87 1.92 1.89 1.79 1.57 1.31 1.23 1.15 1.14 1.13 1.05 1.08 1.26 1.31 1.28 1.33 1.46 1.54 1.52 1.58 1.65 1.73
2.59 2.75 2.88 2.97 3.09 3.22 3.27 3.14 3.05 3.02 2.96 2.77 2.66 2.49 2.39 2.45 2.42 1.99 1.69 1.71 1.76 1.76 1.91 1.97 1.71 1.46 1.29 1.14 1.14 1.14 1.02 0.92 1.03 1.13 1.14 1.15 1.18 1.31 1.53 1.69 1.75 1.77 1.73
2.46 2.48 2.59 2.73 2.86 2.98 3.23 3.26 3.14 2.97 2.86 2.76 2.68 2.50 2.38 2.37 2.33 1.99 1.67 1.63 1.70 1.66 1.72 1.80 1.65 1.47 1.32 1.18 1.13 1.09 1.03 1.07 1.16 1.17 1.20 1.25 1.28 1.36 1.47 1.55 1.66 1.74 1.73
2.48 2.43 2.38 2.41 2.55 2.69 2.80 2.89 2.83 2.77 2.58 2.45 2.30 2.21 2.15 2.15 2.16 1.95 1.71 1.64 1.73 1.80 1.77 1.76 1.71 1.56 1.43 1.32 1.29 1.33 1.37 1.36 1.30 1.30 1.35 1.36 1.35 1.35 1.41 1.48 1.56 1.64 1.60
2.39 2.27 2.26 2.25 2.32 2.37 2.38 2.33 2.20 2.10 1.93 1.72 1.61 1.55 1.54 1.59 1.73 1.59 1.46 1.51 1.67 1.78 1.66 1.60 1.69 1.67 1.58 1.50 1.46 1.47 1.47 1.43 1.39 1.40 1.38 1.37 1.35 1.34 1.38 1.42 1.45 1.46 1.43
2.28 2.12 1.99 1.93 1.95 1.96 2.00 2.14 2.20 1.97 1.76 1.53 1.37 1.24 1.21 1.30 1.40 1.41 1.39 1.42 1.54 1.57 1.44 1.45 1.56 1.61 1.56 1.52 1.47 1.44 1.40 1.45 1.49 1.43 1.37 1.39 1.39 1.37 1.40 1.44 1.44 1.46 1.42
2.16 2.08 1.94 1.88 1.88 1.91 1.95 2.04 2.17 2.15 1.87 1.50 1.36 1.25 1.08 1.03 1.06 1.13 1.17 1.23 1.28 1.30 1.26 1.31 1.38 1.45 1.47 1.49 1.50 1.50 1.45 1.46 1.48 1.47 1.43 1.43 1.44 1.39 1.39 1.39 1.35 1.37 1.46
2.02 1.96 1.89 1.88 1.86 1.86 1.96 2.01 1.99 2.03 1.91 1.68 1.43 1.22 1.07 0.93 0.93 1.01 1.00 1.00 1.12 1.16 1.14 1.19 1.23 1.26 1.31 1.38 1.39 1.44 1.44 1.42 1.42 1.45 1.40 1.40 1.44 1.44 1.44 1.42 1.42 1.45 1.46
1.93 1.84 1.72 1.70 1.67 1.60 1.63 1.71 1.72 1.79 1.76 1.67 1.52 1.24 1.01 0.90 0.91 0.97 0.96 1.04 1.14 1.16 1.14 1.18 1.14 1.15 1.20 1.27 1.33 1.40 1.43 1.44 1.47 1.46 1.44 1.44 1.43 1.45 1.44 1.45 1.48 1.51 1.52
1.88 1.66 1.42 1.30 1.35 1.43 1.51 1.58 1.60 1.62 1.65 1.61 1.41 1.15 0.95 0.83 0.92 1.04 1.11 1.13 1.12 1.13 1.10 1.09 1.07 1.08 1.12 1.20 1.26 1.32 1.39 1.46 1.45 1.45 1.49 1.47 1.41 1.41 1.41 1.45 1.44 1.46 1.51
1.73 1.58 1.39 1.28 1.31 1.37 1.43 1.56 1.58 1.54 1.52 1.52 1.40 1.18 1.03 0.89 0.96 1.05 1.08 1.06 1.05 1.08 1.07 1.04 1.00 1.03 1.08 1.16 1.26 1.30 1.34 1.35 1.37 1.41 1.43 1.45 1.46 1.44 1.43 1.48 1.49 1.48 1.51
1.71 1.63 1.51 1.42 1.45 1.46 1.47 1.52 1.49 1.43 1.41 1.40 1.35 1.24 1.12 1.06 1.07 1.11 1.11 1.09 1.10 1.08 1.08 1.07 1.03 1.01 1.07 1.15 1.20 1.24 1.28 1.27 1.27 1.29 1.37 1.44 1.46 1.48 1.53 1.55 1.51 1.46 1.45
1.53 1.55 1.49 1.41 1.41 1.45 1.42 1.43 1.38 1.33 1.29 1.26 1.21 1.19 1.14 1.13 1.15 1.12 1.13 1.11 1.07 0.96 0.89 0.90 0.93 0.97 1.00 1.02 1.02 1.04 1.06 1.10 1.09 1.13 1.20 1.29 1.35 1.44 1.52 1.57 1.54 1.49 1.55
1.43 1.49 1.49 1.48 1.47 1.45 1.46 1.49 1.42 1.34 1.30 1.25 1.22 1.19 1.16 1.14 1.12 1.15 1.13 1.04 0.95 0.90 0.86 0.87 0.92 0.92 0.88 0.89 0.89 0.90 1.00 0.99 0.95 1.00 1.11 1.26 1.33 1.43 1.57 1.61 1.61 1.63 1.73
1.30 1.34 1.34 1.37 1.39 1.39 1.37 1.39 1.37 1.29 1.21 1.14 1.11 1.10 1.03 0.98 0.96 0.95 0.93 0.89 0.89 0.89 0.89 0.91 0.93 0.93 0.90 0.86 0.87 0.94 0.95 0.90 0.91 0.99 0.99 1.06 1.20 1.31 1.41 1.48 1.46 1.55 1.66

GEFSGL_prec_meanprecacc_294.txt.gz
Total_Precipitation_Accumulation
1.81 2.11 2.21 2.13 2.12 2.18 2.03 1.98 2.08 2.08 2.06 2.15 2.16 2.14 2.13 2.26 2.45 2.67 2.63 2.79 2.91 2.96 2.92 2.83 2.75 2.78 2.94 2.88 3.03 3.19 3.42 3.66 3.37 3.00 2.83 2.77 2.78 2.60 2.43 2.14 1.89 1.78 1.65
2.07 2.42 2.54 2.31 2.10 1.97 1.79 1.77 1.91 2.08 2.13 2.13 2.13 2.13 2.05 2.15 2.39 2.55 2.66 2.90 3.03 2.93 2.83 2.80 2.69 2.81 2.92 2.90 2.99 2.98 3.07 3.38 3.27 3.03 2.96 2.98 2.87 2.68 2.55 2.37 2.00 1.82 1.85
1.93 2.30 2.34 2.08 1.84 1.79 1.77 1.78 1.89 2.06 2.08 2.07 2.12 2.18 2.27 2.37 2.52 2.62 2.74 2.91 2.89 2.78 2.79 2.71 2.59 2.69 2.64 2.71 2.75 2.75 2.75 2.88 3.08 2.97 2.86 2.93 2.84 2.69 2.60 2.43 2.31 2.40 2.19
1.54 1.88 1.86 1.70 1.64 1.65 1.67 1.70 1.70 1.78 1.83 1.88 2.10 2.33 2.46 2.59 2.68 2.71 2.71 2.68 2.67 2.56 2.46 2.40 2.42 2.55 2.66 2.65 2.56 2.54 2.62 2.76 2.87 2.91 2.88 2.95 2.97 2.98 2.86 2.68 2.66 2.59 2.40
1.50 1.74 1.69 1.61 1.63 1.57 1.53 1.64 1.71 1.76 1.79 2.01 2.17 2.27 2.32 2.36 2.43 2.58 2.56 2.46 2.44 2.34 2.24 2.08 2.12 2.45 2.61 2.58 2.37 2.47 2.55 2.61 2.70 2.82 2.87 2.98 3.05 3.26 3.07 2.76 2.62 2.65 2.49
1.43 1.67 1.64 1.56 1.53 1.43 1.48 1.60 1.72 1.81 1.99 2.17 2.15 2.14 2.10 1.79 1.90 2.03 2.07 2.11 2.16 2.13 2.01 1.95 1.94 2.02 2.06 2.10 2.10 2.12 2.19 2.26 2.48 2.76 2.84 2.85 2.82 2.92 3.02 2.92 2.81 2.75 2.68
1.47 1.68 1.70 1.62 1.58 1.52 1.48 1.65 1.81 2.01 2.20 2.30 2.27 2.20 2.05 1.93 1.82 1.72 1.71 1.78 1.93 1.95 1.98 2.04 1.76 1.58 1.72 1.75 1.89 1.88 1.83 1.92 2.07 2.33 2.52 2.53 2.64 2.65 2.91 2.94 3.00 3.03 2.96
1.44 1.67 1.75 1.70 1.72 1.80 1.82 1.88 2.05 2.28 2.44 2.45 2.42 2.32 2.20 2.10 2.00 1.82 1.79 1.71 1.81 1.85 1.86 1.88 1.83 1.70 1.66 1.78 1.86 1.80 1.65 1.62 1.62 1.60 1.82 2.12 2.38 2.63 2.68 2.75 2.87 2.94 2.94
1.40 1.63 1.77 1.82 1.90 1.92 1.99 2.24 2.41 2.56 2.59 2.55 2.61 2.51 2.39 2.37 2.19 1.85 1.68 1.60 1.75 1.80 1.81 1.76 1.72 1.64 1.70 1.58 1.53 1.54 1.55 1.54 1.40 1.39 1.48 1.70 1.91 1.98 2.20 2.46 2.68 2.67 2.62
1.74 1.83 2.06 2.27 2.44 2.51 2.58 2.63 2.69 2.77 2.72 2.72 2.64 2.62 2.50 2.44 2.35 1.82 1.56 1.48 1.67 1.73 1.80 1.75 1.63 1.48 1.47 1.36 1.32 1.46 1.47 1.47 1.49 1.42 1.32 1.36 1.44 1.61 1.72 1.80 2.12 2.34 2.26
2.16 2.22 2.43 2.76 2.95 2.93 2.99 2.88 2.77 2.77 2.78 2.78 2.68 2.58 2.50 2.40 2.31 1.87 1.66 1.61 1.75 1.84 1.81 1.73 1.66 1.54 1.34 1.30 1.25 1.29 1.36 1.36 1.44 1.48 1.43 1.39 1.49 1.61 1.58 1.56 1.73 1.96 2.04
2.45 2.64 2.89 3.14 3.00 2.92 3.07 2.96 2.94 3.00 2.98 2.87 2.77 2.65 2.64 2.55 2.31 1.97 1.73 1.72 1.81 1.88 1.93 1.89 1.80 1.58 1.33 1.26 1.18 1.15 1.14 1.07 1.09 1.27 1.33 1.30 1.35 1.47 1.55 1.54 1.61 1.68 1.77
2.64 2.80 2.92 3.00 3.13 3.26 3.31 3.17 3.07 3.05 2.99 2.80 2.69 2.52 2.41 2.47 2.45 2.03 1.72 1.74 1.79 1.78 1.93 1.99 1.73 1.48 1.32 1.16 1.15 1.15 1.04 0.94 1.03 1.13 1.15 1.16 1.19 1.32 1.54 1.71 1.77 1.80 1.76
2.50 2.52 2.62 2.77 2.90 3.02 3.26 3.29 3.16 2.99 2.88 2.79 2.71 2.55 2.43 2.42 2.38 2.03 1.71 1.67 1.73 1.70 1.75 1.83 1.69 1.52 1.36 1.21 1.14 1.10 1.03 1.08 1.17 1.18 1.21 1.27 1.30 1.38 1.49 1.58 1.69 1.78 1.77
2.54 2.47 2.42 2.44 2.58 2.72 2.83 2.92 2.86 2.81 2.63 2.49 2.35 2.27 2.20 2.19 2.20 1.99 1.76 1.69 1.78 1.85 1.82 1.81 1.77 1.62 1.47 1.35 1.30 1.33 1.38 1.38 1.32 1.32 1.37 1.39 1.38 1.38 1.44 1.51 1.59 1.67 1.65
2.44 2.33 2.31 2.29 2.36 2.41 2.41 2.37 2.24 2.15 1.99 1.80 1.70 1.63 1.60 1.65 1.79 1.64 1.51 1.56 1.72 1.83 1.72 1.66 1.75 1.72 1.62 1.53 1.48 1.48 1.48 1.44 1.40 1.42 1.40 1.39 1.38 1.37 1.41 1.46 1.48 1.49 1.49
2.32 2.16 2.04 1.98 2.00 2.00 2.04 2.17 2.24 2.01 1.81 1.59 1.44 1.30 1.26 1.35 1.45 1.46 1.44 1.48 1.60 1.63 1.49 1.50 1.60 1.64 1.59 1.55 1.49 1.46 1.41 1.46 1.50 1.44 1.39 1.41 1.42 1.41 1.44 1.47 1.47 1.49 1.47
2.21 2.12 1.99 1.94 1.95 1.96 1.99 2.08 2.20 2.19 1.92 1.55 1.41 1.29 1.11 1.06 1.09 1.16 1.22 1.27 1.32 1.33 1.29 1.34 1.40 1.47 1.50 1.52 1.52 1.52 1.47 1.48 1.50 1.49 1.45 1.46 1.47 1.43 1.43 1.43 1.39 1.41 1.51
2.06 2.01 1.92 1.93 1.91 1.92 2.03 2.07 2.05 2.09 1.96 1.73 1.47 1.25 1.10 0.96 0.96 1.03 1.03 1.02 1.13 1.17 1.16 1.20 1.24 1.28 1.33 1.39 1.41 1.46 1.47 1.46 1.46 1.48 1.43 1.42 1.47 1.48 1.47 1.46 1.46 1.49 1.51
1.97 1.88 1.76 1.74 1.70 1.64 1.67 1.76 1.78 1.84 1.81 1.72 1.57 1.28 1.04 0.92 0.93 0.99 0.98 1.06 1.16 1.18 1.16 1.20 1.17 1.17 1.21 1.29 1.35 1.43 1.46 1.47 1.50 1.49 1.48 1.47 1.48 1.50 1.49 1.49 1.52 1.55 1.56
1.90 1.69 1.45 1.33 1.39 1.47 1.55 1.63 1.65 1.67 1.70 1.66 1.46 1.20 0.98 0.85 0.93 1.05 1.12 1.14 1.13 1.14 1.12 1.11 1.09 1.10 1.14 1.21 1.29 1.35 1.41 1.49 1.48 1.48 1.53 1.51 1.46 1.46 1.45 1.49 1.49 1.50 1.55
1.76 1.61 1.42 1.31 1.35 1.40 1.47 1.59 1.63 1.59 1.56 1.55 1.44 1.23 1.08 0.92 0.97 1.06 1.10 1.08 1.06 1.10 1.08 1.05 1.02 1.05 1.10 1.18 1.28 1.33 1.37 1.39 1.41 1.45 1.47 1.49 1.49 1.47 1.46 1.51 1.51 1.50 1.53
1.74 1.67 1.55 1.45 1.49 1.50 1.51 1.55 1.53 1.47 1.46 1.44 1.39 1.28 1.18 1.12 1.11 1.14 1.14 1.12 1.12 1.10 1.10 1.09 1.06 1.05 1.10 1.18 1.23 1.27 1.32 1.31 1.31 1.33 1.40 1.47 1.50 1.51 1.55 1.58 1.53 1.48 1.47
1.56 1.58 1.52 1.44 1.43 1.48 1.45 1.48 1.43 1.39 1.35 1.32 1.27 1.24 1.19 1.19 1.20 1.17 1.17 1.15 1.10 0.99 0.93 0.94 0.97 1.00 1.03 1.05 1.05 1.07 1.09 1.13 1.13 1.16 1.24 1.33 1.39 1.47 1.55 1.59 1.56 1.51 1.57
1.48 1.53 1.53 1.52 1.50 1.49 1.52 1.55 1.48 1.40 1.36 1.31 1.29 1.26 1.22 1.20 1.18 1.21 1.19 1.09 1.00 0.96 0.92 0.93 0.97 0.95 0.90 0.91 0.91 0.92 1.03 1.04 0.99 1.04 1.15 1.31 1.37 1.47 1.61 1.65 1.64 1.66 1.75
1.37 1.39 1.41 1.43 1.44 1.45 1.43 1.45 1.44 1.36 1.28 1.21 1.18 1.17 1.11 1.05 1.03 1.02 1.00 0.96 0.96 0.97 0.96 0.96 0.98 0.97 0.94 0.90 0.92 0.98 0.99 0.94 0.95 1.03 1.02 1.08 1.22 1.33 1.44 1.51 1.49 1.58 1.70

GEFSGL_prec_meanprecacc_300.txt.gz
Total_Precipitation_Accumulation
1.84 2.16 2.29 2.21 2.20 2.26 2.09 2.03 2.13 2.13 2.12 2.23 2.26 2.23 2.20 2.33 2.53 2.74 2.68 2.85 2.97 3.01 2.98 2.90 2.81 2.84 3.00 2.92 3.06 3.22 3.45 3.70 3.41 3.03 2.88 2.82 2.85 2.70 2.52 2.21 1.93 1.81 1.67
2.10 2.46 2.63 2.43 2.21 2.07 1.89 1.86 1.97 2.15 2.19 2.20 2.21 2.19 2.09 2.20 2.46 2.61 2.71 2.96 3.10 2.98 2.89 2.88 2.75 2.88 2.98 2.96 3.04 3.02 3.11 3.44 3.32 3.08 3.01 3.04 2.94 2.75 2.63 2.44 2.06 1.87 1.88
1.95 2.34 2.40 2.16 1.94 1.89 1.86 1.87 1.97 2.14 2.16 2.15 2.20 2.23 2.30 2.42 2.56 2.68 2.79 2.96 2.94 2.83 2.85 2.78 2.65 2.75 2.69 2.76 2.80 2.82 2.82 2.94 3.14 3.03 2.92 2.99 2.91 2.76 2.68 2.51 2.40 2.48 2.25
1.56 1.90 1.90 1.75 1.70 1.74 1.75 1.78 1.79 1.88 1.93 1.98 2.18 2.38 2.50 2.63 2.72 2.77 2.78 2.74 2.73 2.62 2.51 2.44 2.47 2.60 2.70 2.71 2.61 2.60 2.68 2.82 2.92 2.97 2.94 3.02 3.03 3.04 2.93 2.76 2.75 2.69 2.50
1.52 1.75 1.71 1.64 1.67 1.64 1.61 1.71 1.77 1.83 1.87 2.10 2.25 2.33 2.37 2.40 2.47 2.66 2.63 2.52 2.50 2.38 2.28 2.11 2.15 2.48 2.64 2.62 2.41 2.52 2.60 2.66 2.74 2.88 2.92 3.02 3.10 3.32 3.13 2.83 2.69 2.75 2.59
1.45 1.72 1.68 1.60 1.58 1.50 1.56 1.67 1.78 1.87 2.05 2.23 2.22 2.20 2.16 1.82 1.94 2.10 2.13 2.14 2.19 2.17 2.05 1.98 1.97 2.05 2.08 2.13 2.14 2.17 2.24 2.31 2.52 2.82 2.91 2.90 2.88 2.98 3.11 3.02 2.91 2.82 2.73
1.49 1.72 1.76 1.67 1.63 1.59 1.54 1.70 1.88 2.08 2.26 2.37 2.32 2.25 2.09 1.96 1.86 1.76 1.75 1.81 1.95 1.97 2.00 2.07 1.78 1.59 1.74 1.77 1.92 1.92 1.86 1.96 2.10 2.38 2.57 2.60 2.71 2.72 3.00 3.04 3.10 3.10 3.01
1.45 1.69 1.79 1.77 1.81 1.88 1.90 1.95 2.13 2.36 2.51 2.52 2.48 2.37 2.25 2.13 2.03 1.84 1.82 1.74 1.83 1.86 1.87 1.91 1.86 1.73 1.69 1.81 1.91 1.86 1.71 1.67 1.67 1.64 1.86 2.15 2.42 2.70 2.76 2.83 2.98 3.05 3.05
1.42 1.65 1.80 1.87 1.97 2.00 2.07 2.31 2.49 2.65 2.67 2.62 2.67 2.56 2.43 2.40 2.22 1.87 1.70 1.62 1.77 1.81 1.82 1.77 1.73 1.66 1.73 1.61 1.58 1.61 1.62 1.60 1.43 1.43 1.52 1.74 1.96 2.05 2.27 2.53 2.77 2.76 2.70
1.77 1.86 2.09 2.30 2.48 2.56 2.63 2.71 2.77 2.87 2.80 2.79 2.70 2.68 2.55 2.49 2.37 1.85 1.58 1.50 1.69 1.74 1.81 1.76 1.64 1.49 1.49 1.38 1.35 1.50 1.50 1.50 1.55 1.49 1.40 1.42 1.49 1.65 1.75 1.84 2.17 2.40 2.32
2.20 2.25 2.45 2.79 2.98 2.97 3.04 2.95 2.87 2.85 2.87 2.86 2.74 2.63 2.55 2.45 2.34 1.89 1.69 1.63 1.77 1.87 1.82 1.74 1.67 1.55 1.35 1.32 1.27 1.31 1.39 1.41 1.50 1.56 1.51 1.44 1.52 1.64 1.60 1.58 1.76 2.01 2.10
2.49 2.67 2.92 3.18 3.05 2.97 3.14 3.03 3.02 3.08 3.06 2.95 2.85 2.73 2.72 2.61 2.35 2.00 1.76 1.76 1.84 1.91 1.96 1.92 1.83 1.61 1.36 1.28 1.19 1.17 1.16 1.10 1.12 1.31 1.37 1.33 1.38 1.50 1.58 1.57 1.64 1.72 1.83
2.70 2.86 2.98 3.06 3.19 3.32 3.38 3.25 3.16 3.14 3.08 2.88 2.76 2.58 2.46 2.52 2.51 2.07 1.76 1.77 1.82 1.81 1.96 2.03 1.77 1.51 1.35 1.18 1.17 1.17 1.06 0.96 1.06 1.15 1.17 1.19 1.22 1.34 1.57 1.74 1.82 1.87 1.85
2.58 2.61 2.73 2.90 3.04 3.15 3.37 3.37 3.23 3.05 2.94 2.85 2.79 2.63 2.50 2.48 2.42 2.08 1.75 1.70 1.76 1.72 1.77 1.86 1.71 1.54 1.38 1.23 1.16 1.12 1.05 1.09 1.20 1.21 1.23 1.30 1.34 1.42 1.54 1.62 1.74 1.85 1.83
2.63 2.56 2.50 2.52 2.66 2.81 2.93 3.00 2.93 2.88 2.72 2.59 2.44 2.36 2.31 2.29 2.26 2.04 1.79 1.72 1.80 1.86 1.84 1.83 1.79 1.64 1.50 1.37 1.33 1.36 1.40 1.40 1.35 1.35 1.40 1.42 1.41 1.42 1.47 1.55 1.66 1.75 1.73
2.56 2.45 2.42 2.38 2.45 2.49 2.49 2.44 2.30 2.20 2.04 1.86 1.77 1.70 1.69 1.73 1.86 1.70 1.56 1.61 1.76 1.86 1.74 1.68 1.76 1.74 1.64 1.55 1.50 1.51 1.52 1.48 1.44 1.46 1.44 1.43 1.41 1.41 1.45 1.51 1.54 1.55 1.56
2.44 2.30 2.18 2.09 2.10 2.09 2.13 2.26 2.31 2.08 1.87 1.64 1.49 1.35 1.31 1.40 1.50 1.52 1.50 1.54 1.65 1.66 1.51 1.52 1.62 1.67 1.61 1.58 1.52 1.50 1.45 1.50 1.55 1.49 1.44 1.46 1.46 1.45 1.48 1.52 1.52 1.54 1.52
2.29 2.23 2.10 2.04 2.03 2.03 2.11 2.18 2.28 2.27 2.00 1.61 1.46 1.33 1.15 1.10 1.12 1.19 1.26 1.32 1.37 1.39 1.34 1.38 1.43 1.50 1.53 1.56 1.57 1.57 1.51 1.52 1.55 1.55 1.51 1.50 1.51 1.47 1.48 1.48 1.44 1.46 1.56
2.13 2.08 2.01 2.01 1.97 1.97 2.10 2.13 2.12 2.16 2.02 1.78 1.52 1.30 1.14 1.01 1.00 1.08 1.07 1.06 1.17 1.21 1.19 1.23 1.27 1.30 1.36 1.42 1.44 1.50 1.51 1.50 1.50 1.54 1.50 1.49 1.53 1.53 1.53 1.51 1.51 1.55 1.57
2.05 1.95 1.83 1.80 1.77 1.71 1.74 1.84 1.87 1.94 1.89 1.79 1.63 1.34 1.10 0.98 0.98 1.04 1.02 1.09 1.18 1.20 1.18 1.22 1.19 1.19 1.24 1.32 1.40 1.48 1.51 1.53 1.55 1.55 1.54 1.55 1.56 1.58 1.57 1.57 1.59 1.61 1.62
1.96 1.76 1.51 1.37 1.44 1.53 1.63 1.73 1.75 1.78 1.81 1.77 1.57 1.31 1.09 0.93 0.98 1.09 1.16 1.17 1.16 1.17 1.14 1.14 1.12 1.13 1.16 1.24 1.33 1.40 1.47 1.54 1.53 1.54 1.60 1.59 1.53 1.53 1.53 1.56 1.56 1.59 1.64
1.82 1.67 1.50 1.37 1.40 1.47 1.56 1.71 1.73 1.67 1.64 1.65 1.56 1.33 1.18 1.02 1.04 1.11 1.14 1.12 1.10 1.14 1.11 1.09 1.05 1.08 1.13 1.21 1.31 1.36 1.42 1.44 1.46 1.51 1.54 1.56 1.57 1.55 1.53 1.57 1.56 1.56 1.58
1.77 1.71 1.59 1.50 1.55 1.59 1.61 1.63 1.60 1.55 1.54 1.51 1.46 1.36 1.27 1.22 1.21 1.23 1.21 1.18 1.17 1.15 1.14 1.14 1.10 1.08 1.13 1.21 1.26 1.31 1.37 1.36 1.35 1.37 1.45 1.53 1.56 1.58 1.62 1.64 1.59 1.55 1.53
1.58 1.62 1.55 1.47 1.49 1.55 1.52 1.56 1.51 1.47 1.43 1.39 1.35 1.33 1.29 1.29 1.28 1.24 1.24 1.21 1.16 1.05 0.98 0.99 1.02 1.05 1.08 1.10 1.09 1.10 1.13 1.17 1.17 1.20 1.28 1.38 1.44 1.53 1.61 1.65 1.62 1.58 1.65
1.49 1.56 1.56 1.55 1.54 1.55 1.57 1.61 1.54 1.47 1.43 1.39 1.38 1.36 1.33 1.29 1.25 1.27 1.26 1.17 1.07 1.02 0.97 0.99 1.04 1.01 0.95 0.95 0.96 0.96 1.06 1.07 1.03 1.07 1.18 1.35 1.43 1.55 1.68 1.71 1.70 1.72 1.82
1.39 1.42 1.45 1.47 1.47 1.49 1.49 1.53 1.53 1.44 1.37 1.28 1.26 1.27 1.20 1.15 1.13 1.10 1.07 1.04 1.05 1.06 1.03 1.02 1.03 1.03 0.99 0.94 0.95 1.03 1.03 0.97 0.98 1.06 1.05 1.11 1.27 1.39 1.50 1.57 1.55 1.64 1.76

GEFSGL_prec_meanprecacc_306.txt.gz
Total_Precipitation_Accumulation
1.90 2.23 2.37 2.30 2.26 2.31 2.14 2.08 2.19 2.19 2.16 2.26 2.29 2.29 2.27 2.38 2.57 2.79 2.72 2.86 2.98 3.03 3.01 2.94 2.86 2.90 3.04 2.94 3.08 3.26 3.51 3.76 3.46 3.06 2.89 2.84 2.88 2.75 2.58 2.26 1.99 1.86 1.70
2.18 2.53 2.69 2.48 2.26 2.12 1.94 1.90 2.02 2.19 2.23 2.24 2.26 2.25 2.15 2.24 2.50 2.66 2.75 2.99 3.12 3.01 2.93 2.92 2.79 2.91 3.01 2.97 3.05 3.04 3.15 3.48 3.37 3.11 3.03 3.07 2.97 2.80 2.69 2.53 2.15 1.93 1.93
1.99 2.36 2.42 2.19 1.98 1.95 1.92 1.93 2.03 2.19 2.22 2.21 2.25 2.28 2.34 2.46 2.62 2.75 2.84 3.01 2.98 2.86 2.88 2.81 2.67 2.78 2.70 2.77 2.82 2.83 2.84 2.97 3.18 3.06 2.94 3.02 2.94 2.80 2.75 2.62 2.51 2.57 2.32
1.60 1.93 1.93 1.78 1.74 1.79 1.81 1.84 1.84 1.94 2.00 2.06 2.24 2.42 2.54 2.68 2.76 2.81 2.83 2.79 2.77 2.66 2.54 2.47 2.48 2.62 2.72 2.72 2.63 2.61 2.69 2.84 2.96 3.00 2.95 3.04 3.06 3.08 2.99 2.84 2.84 2.78 2.58
1.54 1.78 1.76 1.68 1.72 1.70 1.68 1.79 1.85 1.89 1.92 2.17 2.33 2.41 2.45 2.47 2.53 2.73 2.69 2.56 2.54 2.41 2.30 2.13 2.16 2.50 2.65 2.63 2.42 2.53 2.61 2.67 2.76 2.90 2.94 3.04 3.12 3.35 3.17 2.89 2.78 2.84 2.68
1.47 1.73 1.72 1.63 1.61 1.55 1.62 1.75 1.87 1.95 2.12 2.30 2.29 2.28 2.24 1.89 2.00 2.17 2.18 2.17 2.21 2.19 2.06 1.99 1.98 2.06 2.09 2.14 2.16 2.18 2.25 2.33 2.54 2.85 2.93 2.93 2.90 3.01 3.14 3.07 2.99 2.90 2.79
1.51 1.74 1.78 1.70 1.66 1.63 1.59 1.77 1.97 2.18 2.36 2.45 2.39 2.32 2.15 2.01 1.91 1.80 1.79 1.83 1.98 2.00 2.02 2.08 1.79 1.60 1.75 1.77 1.93 1.93 1.88 1.99 2.14 2.41 2.59 2.62 2.73 2.75 3.05 3.10 3.16 3.16 3.08
1.49 1.72 1.81 1.79 1.83 1.93 1.94 2.01 2.20 2.44 2.60 2.60 2.55 2.44 2.31 2.18 2.08 1.89 1.87 1.78 1.86 1.88 1.89 1.93 1.87 1.74 1.70 1.82 1.93 1.88 1.73 1.69 1.70 1.67 1.88 2.17 2.44 2.73 2.82 2.91 3.05 3.13 3.12
1.45 1.69 1.85 1.92 2.02 2.05 2.11 2.37 2.57 2.74 2.77 2.71 2.76 2.65 2.51 2.46 2.29 1.94 1.77 1.68 1.82 1.85 1.86 1.80 1.74 1.67 1.75 1.64 1.60 1.62 1.64 1.62 1.46 1.47 1.55 1.76 2.00 2.11 2.34 2.60 2.83 2.83 2.77
1.82 1.97 2.22 2.41 2.57 2.65 2.72 2.77 2.84 2.95 2.90 2.90 2.81 2.76 2.62 2.55 2.45 1.94 1.67 1.58 1.77 1.81 1.86 1.79 1.66 1.51 1.51 1.42 1.38 1.51 1.52 1.52 1.58 1.54 1.44 1.45 1.52 1.69 1.81 1.89 2.21 2.44 2.36
2.23 2.31 2.56 2.93 3.14 3.09 3.11 3.00 2.92 2.92 2.94 2.92 2.80 2.71 2.62 2.52 2.42 1.97 1.77 1.72 1.86 1.94 1.88 1.78 1.70 1.58 1.39 1.35 1.30 1.33 1.40 1.43 1.52 1.59 1.55 1.48 1.55 1.67 1.64 1.61 1.79 2.06 2.16
2.55 2.78 3.05 3.29 3.12 3.02 3.18 3.07 3.07 3.13 3.11 3.00 2.90 2.78 2.78 2.69 2.44 2.08 1.85 1.85 1.92 1.97 2.00 1.96 1.86 1.66 1.42 1.34 1.24 1.20 1.19 1.12 1.14 1.32 1.39 1.36 1.41 1.53 1.60 1.60 1.68 1.75 1.88
2.76 2.92 3.04 3.11 3.22 3.35 3.41 3.28 3.20 3.19 3.12 2.94 2.82 2.63 2.54 2.63 2.62 2.17 1.86 1.87 1.91 1.86 2.00 2.08 1.81 1.58 1.42 1.25 1.23 1.22 1.10 0.99 1.08 1.17 1.19 1.20 1.23 1.36 1.59 1.77 1.84 1.90 1.88
2.64 2.66 2.77 2.95 3.08 3.20 3.41 3.41 3.27 3.10 2.99 2.90 2.85 2.70 2.60 2.61 2.55 2.19 1.86 1.79 1.84 1.77 1.82 1.91 1.77 1.61 1.46 1.30 1.23 1.18 1.09 1.12 1.22 1.23 1.25 1.31 1.35 1.44 1.55 1.64 1.77 1.88 1.88
2.71 2.63 2.56 2.60 2.72 2.87 2.98 3.07 2.99 2.95 2.80 2.66 2.51 2.44 2.38 2.39 2.39 2.16 1.89 1.81 1.89 1.94 1.92 1.91 1.87 1.72 1.58 1.44 1.38 1.40 1.43 1.43 1.37 1.37 1.42 1.43 1.42 1.43 1.49 1.57 1.68 1.79 1.76
2.63 2.53 2.49 2.46 2.53 2.58 2.59 2.55 2.41 2.30 2.14 1.94 1.86 1.79 1.76 1.81 1.97 1.80 1.65 1.69 1.86 1.97 1.86 1.78 1.86 1.82 1.70 1.59 1.52 1.53 1.53 1.49 1.45 1.47 1.46 1.45 1.43 1.43 1.48 1.53 1.57 1.57 1.59
2.52 2.39 2.27 2.18 2.20 2.20 2.24 2.39 2.44 2.21 2.00 1.74 1.57 1.42 1.38 1.48 1.57 1.59 1.56 1.61 1.73 1.74 1.57 1.58 1.68 1.72 1.66 1.60 1.54 1.51 1.47 1.51 1.56 1.51 1.46 1.49 1.50 1.49 1.52 1.55 1.55 1.57 1.55
2.36 2.37 2.27 2.15 2.14 2.14 2.22 2.30 2.43 2.40 2.12 1.71 1.56 1.42 1.23 1.16 1.18 1.25 1.34 1.39 1.42 1.42 1.38 1.43 1.49 1.55 1.57 1.59 1.60 1.59 1.54 1.54 1.57 1.57 1.54 1.54 1.55 1.51 1.52 1.52 1.47 1.50 1.60
2.18 2.15 2.11 2.16 2.13 2.12 2.25 2.28 2.27 2.30 2.14 1.89 1.61 1.38 1.23 1.09 1.08 1.16 1.14 1.12 1.21 1.25 1.23 1.28 1.31 1.34 1.38 1.45 1.47 1.53 1.54 1.52 1.53 1.58 1.54 1.53 1.57 1.57 1.58 1.56 1.54 1.58 1.60
2.08 2.02 1.91 1.89 1.89 1.85 1.89 1.99 2.04 2.13 2.07 1.94 1.77 1.47 1.23 1.09 1.06 1.10 1.08 1.16 1.25 1.26 1.23 1.27 1.23 1.23 1.27 1.36 1.44 1.52 1.55 1.56 1.58 1.58 1.57 1.59 1.61 1.64 1.63 1.63 1.64 1.65 1.65
1.99 1.82 1.58 1.44 1.51 1.61 1.72 1.82 1.85 1.89 1.94 1.90 1.70 1.45 1.22 1.02 1.06 1.17 1.24 1.26 1.25 1.24 1.19 1.18 1.16 1.16 1.20 1.28 1.36 1.43 1.51 1.58 1.58 1.60 1.67 1.65 1.58 1.58 1.58 1.62 1.62 1.64 1.69
1.87 1.72 1.53 1.40 1.42 1.50 1.60 1.75 1.79 1.74 1.73 1.74 1.66 1.46 1.31 1.12 1.14 1.20 1.23 1.23 1.21 1.23 1.18 1.14 1.09 1.12 1.16 1.24 1.34 1.41 1.48 1.51 1.53 1.57 1.58 1.60 1.60 1.58 1.57 1.62 1.62 1.62 1.64
1.79 1.72 1.60 1.51 1.56 1.60 1.64 1.69 1.68 1.65 1.62 1.57 1.51 1.42 1.35 1.31 1.29 1.31 1.30 1.27 1.26 1.23 1.22 1.22 1.17 1.13 1.18 1.28 1.33 1.38 1.44 1.41 1.40 1.42 1.49 1.57 1.60 1.61 1.65 1.68 1.64 1.59 1.57
1.59 1.62 1.56 1.49 1.52 1.57 1.56 1.60 1.56 1.56 1.52 1.47 1.41 1.39 1.37 1.38 1.36 1.32 1.33 1.31 1.27 1.17 1.11 1.11 1.12 1.13 1.16 1.18 1.16 1.16 1.17 1.21 1.21 1.25 1.33 1.43 1.48 1.56 1.64 1.68 1.65 1.61 1.68
1.49 1.56 1.58 1.58 1.57 1.58 1.61 1.64 1.57 1.51 1.48 1.47 1.46 1.43 1.42 1.39 1.35 1.36 1.34 1.26 1.19 1.17 1.15 1.15 1.15 1.09 1.02 1.02 1.01 1.01 1.12 1.13 1.09 1.13 1.24 1.39 1.46 1.57 1.71 1.74 1.73 1.75 1.84
1.40 1.44 1.48 1.50 1.50 1.51 1.52 1.56 1.55 1.47 1.41 1.34 1.32 1.33 1.25 1.22 1.24 1.22 1.19 1.15 1.17 1.17 1.13 1.10 1.10 1.09 1.04 0.99 1.01 1.09 1.11 1.06 1.07 1.15 1.12 1.16 1.30 1.40 1.52 1.60 1.58 1.68 1.80